[[{"header":{"parameterUnit":"m.s-1","parameterCategory":1,"la1":30.2992,"la2":30.254,"lo1":-89.0895,"lo2":-89.0443,"dy":0.0025,"dx":0.0025,"nx":19,"ny":19,"refTime":"2026-05-03T09:00:00:Z","depth":0,"parameterNumber":2,"parameterNumberName":"U-component_of_WINDS"},"data":[0,0,0,-1.6858,-1.686,-1.6962,-1.6963,-1.7087,-1.7088,0,0,0,0,0,0,0,0,0,0,0,-1.6823,-1.6824,-1.6858,-1.6861,-1.6962,-1.6963,-1.7086,-1.7088,0,0,0,0,0,0,0,0,0,0,0,-1.6823,-1.6824,-1.6824,-1.6861,-1.6962,-1.6963,-1.7086,-1.7012,0,0,0,0,0,0,0,0,0,0,-1.6914,-1.6876,-1.6823,-1.6825,-1.6862,-1.6962,-1.6963,-1.7008,-1.7017,-1.7037,0,-1.7054,0,-1.7072,-1.7095,-1.7096,0,0,0,-1.6865,-1.6869,-1.6902,-1.6825,-1.6862,-1.6962,-1.6918,-1.7013,-1.7022,-1.7048,-1.7055,-1.706,-1.7075,-1.7096,-1.7097,-1.7203,-1.7203,0,0,-1.6859,-1.6839,-1.6895,-1.6907,-1.689,-1.6914,-1.6921,-1.7019,-1.7026,-1.7056,-1.7063,-1.7077,-1.7097,-1.7098,-1.7202,-1.7203,0,0,0,-1.684,-1.6835,-1.6865,-1.6902,-1.6921,-1.6917,-1.6924,-1.7021,-1.7033,-1.7065,-1.7078,-1.7098,-1.7099,-1.7202,-1.7202,-1.7198,0,0,0,-1.6837,-1.6824,-1.6862,-1.6851,-1.6919,-1.6972,-1.6925,-1.7026,-1.7038,-1.7077,-1.7098,-1.71,-1.7202,-1.7202,-1.7197,-1.7199,0,0,0,-1.6818,-1.6822,-1.6835,-1.6849,-1.6892,-1.6971,-1.6988,-1.7029,-1.7046,-1.7096,-1.71,-1.7201,-1.7202,-1.7197,-1.7198,-1.7221,0,0,0,-1.6793,-1.6828,-1.6834,-1.688,-1.6891,-1.6967,-1.6988,-1.7045,-1.7088,-1.7098,-1.7202,-1.7202,-1.7196,-1.7197,-1.722,-1.7236,-1.7241,0,0,-1.6826,-1.6832,-1.686,-1.6869,-1.6938,-1.6953,-1.7023,-1.7081,-1.7105,-1.7169,-1.7172,-1.7197,-1.7198,-1.7221,-1.7276,-1.7279,0,0,0,-1.6864,-1.6885,-1.6908,-1.6947,-1.6992,-1.7032,-1.7082,-1.7104,-1.716,-1.7133,-1.7213,-1.7214,-1.7228,-1.7237,-1.724,-1.7254,-1.7206,-1.7205,-1.7205,-1.6882,-1.6911,-1.6961,-1.7002,-1.7041,-1.7093,-1.7127,-1.7166,-1.7183,-1.7202,-1.7221,-1.7251,-1.726,-1.7262,-1.7277,-1.7232,-1.7232,-1.7232,-1.7232,-1.6935,-1.6968,-1.6992,-1.7048,-1.7079,-1.7128,-1.7181,-1.7192,-1.7242,-1.7238,-1.7252,-1.7245,-1.7265,-1.728,-1.7232,-1.7232,-1.7232,-1.7232,-1.7232,-1.6949,-1.697,-1.6997,-1.7058,-1.7103,-1.7145,-1.7193,-1.7219,-1.7245,-1.7259,-1.7282,-1.7283,-1.7286,-1.7268,-1.7269,-1.7269,-1.7269,-1.7269,-1.7269,-1.6953,-1.6984,-1.702,-1.7073,-1.7103,-1.7146,-1.7201,-1.7232,-1.7273,-1.7289,-1.7289,-1.7305,-1.7262,-1.7251,-1.7271,-1.727,-1.727,-1.727,-1.727,-1.6994,-1.699,-1.7046,-1.7076,-1.7142,-1.7185,-1.722,-1.7281,-1.731,-1.7333,-1.7348,-1.7311,-1.7319,-1.7316,-1.7307,-1.7341,-1.7341,-1.7341,-1.7341,-1.7006,-1.7013,-1.7077,-1.7124,-1.7173,-1.7211,-1.7275,-1.7319,-1.7364,-1.7385,-1.7385,-1.7375,-1.7371,-1.7381,-1.7377,-1.7369,-1.7417,-1.7417,-1.7417,-1.7034,-1.7047,-1.7095,-1.7139,-1.7193,-1.7239,-1.7301,-1.7356,-1.7406,-1.7421,-1.7402,-1.7399,-1.7383,-1.7377,-1.7389,-1.7383,-1.7368,0,0]},{"header":{"parameterUnit":"m.s-1","parameterCategory":1,"la1":30.2992,"la2":30.254,"lo1":-89.0895,"lo2":-89.0443,"dy":0.0025,"dx":0.0025,"nx":19,"ny":19,"refTime":"2026-05-03T09:00:00:Z","depth":0,"parameterNumber":3,"parameterNumberName":"V-component_of_WINDS"},"data":[0,0,0,0.9867,0.9866,0.983,0.983,0.9784,0.9784,0,0,0,0,0,0,0,0,0,0,0,0.9878,0.9878,0.9867,0.9866,0.983,0.983,0.9784,0.9784,0,0,0,0,0,0,0,0,0,0,0,0.9878,0.9878,0.9878,0.9866,0.983,0.9829,0.9784,0.9812,0,0,0,0,0,0,0,0,0,0,0.9847,0.9858,0.9878,0.9878,0.9866,0.983,0.9829,0.9813,0.981,0.9801,0,0.9793,0,0.9788,0.9781,0.9781,0,0,0,0.9866,0.986,0.985,0.9878,0.9866,0.983,0.9846,0.9811,0.9808,0.9797,0.9793,0.9791,0.9787,0.9781,0.978,0.9731,0.9731,0,0,0.9868,0.9872,0.9852,0.9848,0.9853,0.9847,0.9845,0.9809,0.9805,0.9793,0.979,0.9786,0.978,0.978,0.9732,0.9731,0,0,0,0.9874,0.9873,0.9864,0.985,0.9843,0.9846,0.9844,0.9806,0.9803,0.979,0.9786,0.978,0.978,0.9732,0.9731,0.9724,0,0,0,0.9875,0.9877,0.9865,0.9867,0.9843,0.9824,0.9841,0.9805,0.9801,0.9786,0.978,0.9779,0.9732,0.9732,0.9725,0.972,0,0,0,0.9881,0.9878,0.9872,0.9867,0.9852,0.9824,0.9819,0.9804,0.9799,0.9781,0.9779,0.9732,0.9732,0.9726,0.9721,0.9708,0,0,0,0.9888,0.9867,0.9872,0.9848,0.9852,0.982,0.9819,0.9795,0.9779,0.978,0.9732,0.9731,0.9726,0.9722,0.9709,0.9698,0.9694,0,0,0.9863,0.9864,0.9849,0.9853,0.9821,0.9826,0.9793,0.9774,0.9769,0.9744,0.9743,0.9725,0.9721,0.9708,0.967,0.9666,0,0,0,0.9843,0.9832,0.9823,0.9807,0.9793,0.978,0.9766,0.9759,0.9738,0.9757,0.9717,0.9714,0.9707,0.9701,0.9698,0.9692,0.9729,0.9729,0.9729,0.9814,0.9808,0.9783,0.9774,0.9759,0.9745,0.9732,0.9721,0.972,0.9711,0.9703,0.968,0.9674,0.9672,0.9665,0.9697,0.9697,0.9697,0.9697,0.9777,0.9761,0.9761,0.9736,0.9731,0.9711,0.9697,0.9697,0.9677,0.9685,0.9678,0.9687,0.9668,0.9662,0.9696,0.9696,0.9697,0.9697,0.9697,0.9757,0.9749,0.9741,0.9718,0.9702,0.9693,0.9674,0.967,0.9667,0.966,0.9651,0.9651,0.9651,0.9656,0.9656,0.9656,0.9656,0.9656,0.9656,0.9739,0.9731,0.9715,0.9699,0.9688,0.9675,0.9661,0.9651,0.9639,0.9638,0.9637,0.9637,0.9667,0.9675,0.9654,0.9655,0.9655,0.9655,0.9655,0.9704,0.9711,0.9687,0.9677,0.9657,0.9641,0.9637,0.9617,0.9608,0.9599,0.9601,0.9624,0.9624,0.9626,0.9632,0.9602,0.9602,0.9602,0.9602,0.9686,0.9686,0.9661,0.9645,0.9629,0.9623,0.9597,0.9586,0.9577,0.9571,0.9575,0.9583,0.9586,0.9585,0.9588,0.9593,0.9554,0.9554,0.9554,0.9664,0.9662,0.964,0.9631,0.9616,0.9602,0.9578,0.956,0.9551,0.9552,0.9567,0.9569,0.9582,0.9586,0.9586,0.9591,0.9601,0,0]}]]